Theta_e
312 312 311 310 311 311 313 315 316 315 315 315 315 315 315 316 317 312 308 313 311 305 304 305 306 301 302 301 298 302 302 304 303 301 299 297 296 300 298 299 300 297 295 295 295 292 293 312 311 302 306 309 313 317
312 311 310 310 311 311 312 313 315 315 314 314 314 314 315 315 316 315 307 312 311 305 301 307 309 309 308 307 301 304 300 302 309 301 306 303 298 300 298 296 306 297 298 298 299 298 305 313 310 311 313 311 318 318
311 311 310 310 311 311 311 313 314 314 313 313 313 314 314 315 314 313 305 312 310 305 302 299 301 308 309 309 310 299 302 309 310 312 308 306 301 302 297 300 303 305 308 302 300 304 308 310 315 317 316 313 320 321
311 310 310 310 311 311 311 312 313 314 313 313 313 313 313 314 313 312 306 313 310 305 298 296 307 304 309 308 306 309 308 308 310 312 306 304 301 303 300 301 302 306 308 305 303 310 312 311 314 315 319 319 322 324
311 310 309 310 310 311 311 311 311 312 313 313 313 313 313 312 312 310 305 310 312 305 296 297 303 305 304 304 305 306 304 305 306 304 302 302 304 302 301 302 300 308 306 304 303 310 309 312 316 319 318 318 322 323
310 310 309 310 310 310 311 312 311 311 312 313 312 312 312 312 311 303 301 309 311 311 302 295 300 301 305 305 304 303 306 307 305 304 303 302 305 302 296 296 305 312 314 313 310 314 311 313 319 320 317 318 318 322
310 309 309 309 309 310 310 311 311 311 312 312 312 312 312 311 304 299 298 307 310 307 299 295 293 304 309 309 306 306 308 310 306 303 301 301 301 303 298 296 304 308 311 313 314 312 312 316 314 319 321 320 320 321
310 309 309 309 309 309 310 310 311 311 311 311 312 311 311 310 308 303 307 309 309 304 303 294 293 297 308 302 301 307 306 306 306 304 302 300 300 301 295 301 305 308 311 312 313 314 313 317 318 320 320 319 316 318
310 309 309 309 309 309 309 310 310 311 311 311 311 311 306 303 302 306 313 311 310 304 297 297 293 289 303 301 305 306 305 299 304 299 299 303 297 294 300 301 305 310 309 309 311 313 315 319 317 319 319 319 315 317
310 309 308 308 308 308 308 309 310 310 310 310 305 304 299 304 316 313 308 302 301 301 300 295 299 295 300 299 301 303 304 301 294 297 302 298 296 302 304 306 308 311 312 312 308 308 313 316 318 319 319 319 319 319
310 309 308 308 308 308 308 308 309 309 310 305 304 303 308 315 304 303 299 297 298 295 298 298 299 295 302 296 297 304 301 301 293 298 297 296 296 302 307 307 310 313 315 316 316 315 318 319 318 320 320 321 322 322
309 308 308 308 308 308 308 308 309 303 306 304 302 303 303 304 302 298 296 299 296 294 301 298 301 302 302 305 301 302 298 301 296 306 301 296 299 308 312 308 310 313 317 317 319 318 319 320 320 321 321 319 321 324
309 308 308 308 308 308 308 308 308 309 307 303 303 301 300 299 291 294 292 295 296 300 302 302 300 303 304 306 302 301 297 296 303 298 297 300 309 315 313 315 316 314 314 315 315 318 320 319 320 320 320 325 325 324
308 308 307 307 307 308 308 308 308 307 301 300 299 289 295 295 295 299 299 300 305 304 304 304 301 302 304 301 302 298 301 303 297 295 298 304 308 312 312 316 315 316 314 315 317 317 317 317 320 324 324 322 323 322
307 307 307 307 307 307 308 308 309 306 302 299 298 290 293 300 302 304 306 305 307 308 306 304 302 303 302 300 301 299 296 296 299 298 302 305 308 308 310 311 312 314 316 313 314 315 315 317 320 320 322 321 320 320
307 306 304 306 307 309 309 308 305 303 302 297 296 293 296 296 296 298 301 302 307 309 308 306 302 300 299 300 297 295 296 293 300 304 306 310 309 313 310 313 314 319 317 316 315 315 317 318 321 320 321 320 320 320
305 301 309 308 310 309 308 301 305 301 299 297 294 297 297 297 296 300 302 303 310 305 301 303 300 300 305 301 299 304 300 303 304 306 308 309 312 315 315 316 319 322 318 315 319 322 319 320 321 320 319 320 320 321
301 308 310 309 307 306 304 304 302 299 294 294 292 294 296 298 298 298 300 302 304 302 300 300 303 301 300 298 300 304 306 308 310 310 313 314 314 316 318 316 319 318 316 317 315 315 315 316 315 314 316 318 321 323
304 305 307 309 307 303 301 301 302 294 293 294 295 297 297 298 300 301 300 302 303 306 303 300 302 301 302 306 306 308 308 307 308 309 312 316 316 317 318 318 317 315 315 314 314 314 312 312 315 316 316 316 320 321
306 306 307 307 306 301 298 298 304 297 293 296 298 296 297 297 299 300 300 301 300 304 301 299 300 303 302 304 308 308 310 311 312 310 309 314 316 316 315 315 314 313 314 313 313 311 314 312 314 316 316 316 316 317
305 304 307 306 303 301 299 297 295 295 295 295 297 297 298 301 299 299 299 301 301 302 299 301 305 305 308 309 309 312 310 312 311 310 311 312 314 314 313 314 314 312 310 310 309 311 310 313 313 315 317 314 315 320
305 309 303 303 301 302 298 298 296 300 296 296 296 297 295 297 299 300 303 299 298 300 301 302 304 308 308 308 312 312 314 313 313 312 309 310 312 310 311 311 310 310 308 309 309 311 312 313 314 314 316 316 315 321
306 305 304 303 298 296 292 300 296 297 293 295 300 298 297 299 302 306 299 300 300 307 310 311 311 314 312 315 315 315 315 314 311 312 313 312 310 309 310 311 309 308 311 312 313 314 313 311 314 315 315 316 315 315
307 301 297 297 296 291 297 298 300 298 298 296 295 296 299 301 305 302 297 303 309 310 308 309 310 310 310 311 310 311 314 314 313 313 313 311 309 310 309 311 312 314 316 316 317 315 316 316 311 315 315 316 315 313
294 290 292 287 293 293 293 295 295 296 294 297 297 296 299 304 299 297 296 300 303 304 306 308 309 308 307 308 310 312 315 315 313 314 317 313 311 309 309 314 316 316 316 314 313 314 314 315 315 315 315 315 314 313
287 292 288 293 293 292 295 295 296 296 296 297 298 302 303 300 298 298 299 304 305 306 308 307 305 305 306 309 309 310 313 316 315 314 313 313 311 312 312 312 310 313 316 315 315 315 315 315 314 314 314 315 306 314
285 289 294 298 298 298 296 297 299 297 296 297 300 301 300 294 297 302 305 307 306 309 309 311 310 308 309 310 313 315 315 314 316 316 317 315 317 318 316 312 311 314 316 318 318 318 316 315 314 314 315 316 317 317
293 293 294 297 297 298 294 294 295 296 300 303 302 299 298 298 298 305 307 310 309 308 309 312 317 318 314 313 315 312 311 316 319 318 320 318 319 319 318 317 314 307 314 315 317 317 316 316 317 319 319 318 317 320
293 296 295 293 296 295 295 295 295 298 303 302 299 299 301 304 307 307 311 312 312 311 313 315 315 317 317 317 317 316 314 314 314 312 311 313 312 316 319 318 315 318 316 315 304 305 313 315 316 320 320 318 316 315
293 296 294 296 295 294 295 297 298 301 304 304 305 304 305 306 310 312 311 311 312 313 316 316 316 316 314 315 314 316 318 318 317 316 312 313 315 318 317 317 319 318 317 319 316 316 309 315 314 320 318 318 317 318
299 298 296 294 294 297 301 302 301 303 302 304 306 304 302 304 309 312 315 315 315 314 314 316 314 316 316 316 316 314 311 317 322 321 317 317 318 318 318 317 317 317 319 317 315 315 315 316 317 314 314 314 315 315
295 295 294 293 296 301 303 302 303 304 304 302 303 303 305 307 305 311 317 314 315 315 311 313 313 313 316 317 318 318 307 317 317 319 319 318 319 316 316 317 317 317 316 316 313 312 313 313 313 311 311 310 310 309
296 296 296 296 296 299 306 304 303 303 303 300 304 307 307 305 305 310 317 320 317 317 315 315 316 316 313 312 312 309 306 307 299 295 296 297 300 307 313 315 315 314 310 310 311 311 310 310 310 310 310 310 310 310
Wind_Speed
6 6 9 9 10 11 12 12 10 9 10 11 12 13 13 13 12 5 4 2 2 3 5 9 7 2 4 2 2 6 7 6 6 3 3 4 2 3 2 3 5 2 5 4 4 4 5 6 6 1 5 4 6 7
6 6 8 9 9 10 11 12 10 9 9 12 12 12 12 11 12 7 3 1 1 3 7 3 16 19 20 18 1 4 2 2 3 2 2 4 4 4 1 2 6 3 2 3 8 9 6 6 8 5 3 6 4 9
5 5 7 8 8 9 10 11 10 10 10 11 12 13 13 10 11 8 3 2 1 3 6 1 7 8 9 13 13 4 4 5 1 3 1 2 4 2 3 2 3 5 7 4 6 5 6 6 5 6 3 2 5 9
6 6 7 7 8 8 9 10 11 11 10 11 12 13 13 12 10 9 3 2 2 3 4 7 3 9 13 14 11 13 17 12 7 3 2 2 2 1 2 3 2 4 5 5 5 9 14 6 3 4 7 3 7 11
6 6 7 8 8 8 9 10 11 11 11 12 12 12 13 13 12 7 4 3 3 2 3 8 16 14 6 6 9 10 10 10 5 3 3 4 2 1 2 1 3 3 4 2 3 1 4 9 8 13 4 3 13 14
7 7 7 8 8 9 10 11 10 11 13 10 12 12 12 11 11 3 2 1 2 0 4 5 6 8 13 7 9 8 9 4 4 5 3 3 4 3 2 3 5 3 4 3 3 4 10 15 17 12 11 9 10 15
8 7 8 8 9 9 9 10 11 12 13 13 12 12 12 10 1 2 4 1 3 2 2 5 5 6 6 5 4 1 2 3 4 3 2 3 2 3 2 7 5 6 2 6 4 6 6 4 9 17 11 9 6 13
8 7 8 8 9 10 9 10 12 13 13 13 14 14 13 12 8 5 3 6 5 1 2 3 5 5 4 4 4 3 1 2 2 3 1 3 1 3 6 9 11 10 8 5 9 6 6 8 11 7 7 7 12 1
8 7 8 8 8 9 9 10 12 14 14 15 15 17 3 1 2 2 4 6 1 1 2 3 3 4 5 3 2 4 2 2 2 3 4 4 4 8 9 9 9 9 9 10 7 5 5 6 9 9 6 3 7 8
8 8 8 7 8 9 8 10 12 15 18 18 3 1 2 4 7 6 2 2 2 2 2 3 3 5 3 3 3 2 1 1 2 6 2 4 6 7 12 11 10 12 11 7 3 6 5 5 5 7 6 5 7 6
9 8 8 7 7 9 8 9 11 14 11 2 2 2 3 5 1 2 2 3 2 3 3 4 4 4 3 1 3 1 3 2 2 4 5 4 5 9 18 19 14 13 12 12 12 4 7 6 2 5 11 13 7 14
9 9 9 7 8 8 8 8 9 5 2 3 5 5 3 2 3 3 3 3 4 3 2 3 3 3 3 1 2 3 3 2 5 0 4 4 5 5 8 11 16 13 14 13 11 9 12 10 7 3 12 15 16 6
8 9 8 8 8 9 8 7 8 8 8 1 2 3 2 3 2 4 3 3 3 3 4 3 3 3 2 2 3 2 2 5 3 2 4 4 5 6 7 3 7 17 14 13 15 12 13 15 16 18 19 11 11 11
10 9 7 8 9 10 9 7 7 6 2 2 3 5 4 4 5 4 5 4 5 4 3 2 2 2 2 2 3 3 4 3 3 3 3 3 7 8 6 5 4 4 13 16 15 10 9 7 8 11 15 13 11 12
9 7 7 10 12 12 9 8 6 2 2 3 3 5 5 4 3 1 1 2 3 4 3 2 3 2 2 3 0 3 3 4 2 2 3 5 7 8 5 5 5 8 5 10 8 6 6 4 8 8 9 8 6 7
7 6 6 9 7 4 1 0 2 2 3 3 5 4 5 3 4 3 3 4 2 3 2 1 2 3 4 3 3 6 4 4 2 3 5 7 7 8 5 8 13 8 4 7 6 6 6 5 9 10 8 8 9 11
5 3 1 7 5 3 2 1 2 4 4 4 5 4 5 6 5 3 2 4 1 3 3 2 2 3 4 2 3 1 2 2 6 6 5 6 5 7 2 5 10 8 5 7 9 10 7 5 10 8 9 5 5 7
2 3 3 3 3 2 1 3 3 3 6 5 4 5 3 3 3 5 4 5 2 2 2 2 2 4 3 4 3 4 2 2 4 7 6 8 9 9 5 8 9 5 6 6 7 6 6 8 8 5 6 5 7 5
2 2 6 3 1 1 2 3 3 4 7 4 5 5 4 4 4 5 4 5 3 4 1 2 1 2 4 3 4 3 3 2 2 3 4 8 6 8 5 5 7 7 7 5 6 5 3 4 5 5 5 2 7 4
6 6 6 3 0 2 3 3 3 4 5 4 3 4 4 4 4 3 4 4 2 2 2 2 4 3 4 3 3 4 3 2 3 3 3 5 5 7 6 5 4 4 4 6 5 4 3 3 3 4 4 4 3 4
3 4 6 4 2 3 3 3 4 4 4 4 4 3 4 2 3 3 4 2 1 3 3 4 4 4 6 3 2 4 4 3 3 3 3 3 5 5 5 5 4 4 4 3 3 3 3 2 3 2 5 3 2 3
2 8 3 3 3 4 4 5 4 3 2 4 3 3 4 3 3 4 3 2 4 5 5 4 4 4 3 1 1 2 3 3 2 2 3 2 4 4 5 4 4 4 4 3 3 2 3 2 2 0 3 3 4 4
4 2 3 4 3 3 7 2 3 4 3 4 3 2 3 3 3 2 1 4 4 2 3 2 2 3 1 2 4 3 2 2 3 3 4 4 3 3 3 4 3 2 3 3 3 4 3 3 5 4 3 3 4 4
2 2 3 4 6 5 4 3 3 3 3 3 3 3 3 3 5 1 3 0 1 2 3 4 3 4 5 5 3 3 3 2 3 4 3 3 3 5 3 3 2 3 2 2 4 4 4 4 5 3 3 2 3 2
2 5 3 5 4 3 4 4 4 3 3 3 1 4 2 3 2 2 1 2 3 2 2 3 3 2 1 3 3 4 4 2 3 4 5 4 3 2 2 2 4 4 3 5 4 4 4 4 3 2 3 2 3 4
3 4 7 5 4 4 4 2 6 4 3 3 3 1 1 2 2 4 2 2 2 2 2 2 2 3 3 4 3 4 4 3 3 3 4 3 4 5 5 5 3 3 3 2 4 4 3 3 3 5 4 4 2 1
3 5 5 5 2 2 3 4 3 3 4 2 0 1 1 3 5 2 2 2 2 3 3 3 3 4 4 4 4 4 4 4 4 4 3 2 4 3 5 5 4 2 1 4 4 4 3 3 3 3 4 3 2 1
5 4 3 2 3 3 4 3 3 2 2 3 2 4 3 2 2 3 4 3 3 3 3 4 3 4 4 5 4 2 3 4 5 1 2 4 3 5 5 4 4 8 4 4 4 3 3 2 3 4 3 5 6 5
4 4 1 5 4 3 4 5 5 4 3 2 2 3 3 3 2 2 3 3 2 1 3 2 3 4 3 2 2 2 3 1 2 3 4 2 1 5 4 4 4 4 3 3 5 4 2 5 6 7 8 7 5 5
5 4 2 3 3 4 4 4 4 3 2 2 3 3 3 4 4 2 2 2 2 1 2 1 3 4 5 4 5 6 4 1 2 5 5 4 3 1 3 5 5 4 4 5 5 6 9 7 7 10 9 7 5 7
3 2 5 5 6 6 7 6 5 6 3 4 4 3 4 4 4 2 1 2 4 2 2 3 3 5 3 3 2 2 3 5 4 7 5 4 4 4 4 5 4 4 5 6 5 5 6 8 7 7 8 8 9 9
3 5 3 2 4 5 5 3 2 2 1 1 3 1 1 2 3 3 2 1 4 4 1 1 3 2 3 3 4 1 1 3 5 5 7 5 5 5 5 4 5 4 5 5 6 6 8 9 8 9 9 10 9 9
4 4 5 4 6 4 3 4 2 3 2 1 2 1 2 2 3 4 2 3 4 4 3 2 1 2 3 5 5 4 5 5 8 10 11 10 9 7 4 4 4 4 7 6 6 7 9 10 8 8 8 8 7 7
Wind_Direction
306 317 326 327 330 333 338 341 341 345 345 349 349 349 350 349 345 357 273 272 205 251 274 262 279 267 323 265 286 313 352 354 351 104 341 277 224 273 8 299 118 160 145 200 103 112 272 179 55 206 231 279 160 163
298 310 317 320 326 329 334 334 335 338 353 347 345 343 342 347 349 339 279 293 68 226 252 260 265 261 243 233 240 288 264 250 242 30 98 310 320 11 343 315 340 33 280 249 159 203 235 229 145 172 97 278 142 127
287 302 310 313 321 322 322 328 328 340 345 339 339 339 339 338 341 348 265 264 215 258 273 236 257 268 226 223 222 220 254 225 98 156 163 265 288 11 36 347 315 328 358 37 25 338 281 231 129 142 121 312 164 143
273 292 300 305 316 319 317 321 325 325 326 327 330 332 333 333 330 339 284 291 279 284 273 278 316 301 280 286 244 219 238 273 260 108 252 223 281 84 253 238 158 227 350 322 289 359 339 9 84 248 161 87 275 155
265 280 289 293 303 313 311 306 307 310 312 315 318 321 327 327 321 305 236 246 240 241 285 291 301 277 254 229 252 232 210 232 218 220 192 212 222 22 310 28 243 212 176 129 228 337 245 261 307 310 15 162 188 159
255 266 276 285 291 299 319 312 301 303 302 300 308 313 314 318 331 331 319 43 345 345 305 310 288 294 300 270 236 202 214 188 156 156 208 239 246 117 251 231 241 187 127 154 248 283 249 259 278 26 334 332 192 173
248 260 272 284 292 297 310 318 313 310 302 294 295 296 297 298 319 233 224 227 17 25 279 290 288 274 333 342 1 45 86 176 131 175 193 197 255 127 222 228 246 261 251 167 206 309 334 7 308 311 305 338 3 162
241 253 269 283 293 297 301 313 315 312 305 299 296 291 287 283 265 270 246 248 152 222 258 272 274 308 5 353 337 356 114 72 20 177 349 182 336 176 245 226 231 236 241 241 193 194 238 268 299 335 308 34 38 104
235 243 259 274 286 298 303 308 313 310 308 301 298 297 310 169 236 240 69 106 122 182 269 239 278 283 348 329 267 345 34 104 227 184 220 151 212 227 223 206 211 204 192 223 157 175 285 285 303 324 274 96 97 53
231 241 252 267 286 294 306 311 316 313 306 303 297 260 266 225 128 126 203 182 175 197 227 252 302 276 357 349 346 306 305 310 233 238 132 205 251 242 228 216 201 213 197 200 146 215 229 288 324 289 307 340 26 359
226 235 246 258 277 291 308 317 320 327 313 16 331 263 324 148 41 208 256 222 160 235 205 235 231 237 279 190 253 241 316 242 252 255 163 240 265 241 238 229 209 206 189 202 216 188 187 179 228 313 320 324 338 314
219 230 242 253 271 289 304 318 327 343 344 302 271 286 268 241 238 247 233 194 215 268 208 230 245 217 273 267 187 251 245 260 244 16 231 249 257 296 311 226 207 191 195 207 206 203 224 203 197 256 299 299 296 208
217 231 241 257 271 284 297 307 308 287 304 282 220 242 204 229 269 231 248 196 232 194 231 202 249 216 240 231 236 241 257 241 332 227 235 246 302 323 349 11 251 209 206 213 237 213 218 222 201 192 217 205 185 154
219 228 243 259 270 277 285 291 297 313 279 242 238 265 219 204 239 210 229 247 206 192 228 195 257 238 235 215 228 245 230 223 251 243 257 315 330 319 303 312 36 9 201 200 211 218 217 216 238 188 166 180 148 139
220 235 254 266 256 265 271 276 262 243 251 260 249 242 233 242 279 106 356 331 254 182 177 188 219 216 218 264 281 310 281 263 253 285 282 307 328 290 319 342 348 6 319 214 218 200 206 228 161 143 156 157 151 149
210 268 236 221 244 241 164 135 217 238 253 243 241 278 276 335 321 319 266 282 285 140 140 214 266 258 204 163 209 226 221 217 306 320 294 311 326 302 311 5 355 329 297 177 172 173 167 169 177 165 144 157 166 170
186 245 325 183 173 154 173 202 259 232 248 251 248 246 240 262 250 273 283 273 116 116 256 189 258 226 307 215 245 358 241 324 299 287 269 270 301 286 227 47 333 349 349 60 93 98 103 113 106 138 148 190 212 197
236 343 123 150 148 174 239 205 248 253 251 255 254 263 259 238 275 293 286 303 342 303 346 261 295 341 8 323 319 291 295 250 254 288 315 315 306 306 174 163 193 237 35 52 80 95 90 74 88 100 116 94 110 140
89 20 0 32 38 255 217 223 196 259 240 232 251 257 236 241 248 250 263 280 253 238 262 342 242 225 249 220 246 269 288 257 221 274 285 311 335 320 17 29 25 23 32 44 55 60 64 100 136 141 135 147 113 130
266 281 269 282 202 261 259 254 215 255 270 252 264 263 227 219 231 234 264 271 286 273 257 228 227 223 206 244 206 214 236 270 356 345 327 324 330 341 351 21 22 19 21 53 82 95 66 22 41 90 102 131 133 142
203 236 186 183 208 214 262 249 241 229 261 259 275 257 257 276 251 233 244 208 187 217 247 235 261 271 262 241 228 159 227 201 173 192 240 304 317 334 336 338 358 33 58 27 37 64 85 207 233 166 141 187 194 182
249 155 136 201 253 221 238 229 223 259 226 243 286 210 257 263 245 223 182 135 222 229 210 226 258 258 301 163 274 145 191 180 211 276 284 285 306 332 333 338 20 342 9 3 31 26 40 55 49 7 214 247 183 185
293 194 219 200 248 235 254 186 220 242 244 262 299 294 297 284 250 6 186 213 228 252 189 201 306 297 160 15 14 333 299 226 263 270 289 277 274 294 313 340 356 16 69 29 95 77 84 23 43 67 57 104 156 213
276 249 235 214 192 253 267 224 218 252 240 246 256 281 224 276 316 299 231 344 337 344 25 340 13 10 352 6 355 318 315 343 305 298 274 291 310 298 355 320 84 75 93 83 74 65 33 12 357 351 17 19 14 80
186 264 146 265 279 255 255 241 216 238 249 231 149 266 289 353 300 297 302 283 327 339 324 356 36 22 357 310 309 301 326 3 313 291 288 206 242 3 55 52 53 28 34 58 25 29 5 1 10 29 17 353 320 15
207 231 183 224 225 203 240 314 4 327 272 242 179 348 324 275 265 259 247 234 239 238 259 269 264 290 284 235 268 302 294 308 316 296 289 330 169 143 143 120 89 12 356 83 93 73 38 18 3 350 334 328 230 80
244 257 230 225 245 278 292 291 263 241 235 298 181 106 258 220 233 265 262 247 236 241 229 235 234 246 258 287 288 278 293 300 232 230 269 67 82 106 128 129 126 196 319 76 57 63 44 355 330 325 303 301 244 106
240 268 247 325 277 217 240 239 266 279 32 299 310 233 281 10 281 241 213 231 225 274 298 286 244 241 250 251 247 290 317 321 352 344 49 24 33 85 73 90 102 109 86 67 67 51 32 4 349 343 9 75 47 62
239 248 265 271 252 244 224 207 220 239 209 157 267 289 290 270 240 256 271 252 279 355 312 350 341 294 283 277 285 242 209 152 223 162 106 146 58 31 18 40 132 113 94 74 43 31 44 49 46 59 68 76 61 54
241 193 246 274 226 236 231 218 268 291 240 215 231 308 313 291 263 235 260 322 340 78 102 51 296 327 340 26 341 350 7 265 203 163 142 124 115 133 83 87 85 90 85 69 50 32 38 50 47 66 66 65 62 83
269 204 209 214 252 255 251 250 257 260 233 222 236 215 253 281 299 288 199 223 216 264 315 282 189 208 215 141 219 284 340 346 61 121 115 110 104 97 91 91 93 89 83 84 76 65 61 56 55 67 66 65 65 71
225 213 195 234 262 258 274 248 245 276 265 346 281 180 26 329 291 293 291 40 79 108 73 59 112 215 261 170 181 121 74 61 79 99 108 116 109 114 111 100 95 101 103 93 82 83 70 69 71 73 72 70 69 70
214 229 239 253 253 244 30 46 354 302 291 259 260 223 179 169 287 273 302 211 136 189 179 208 215 344 111 97 102 85 66 60 56 65 81 88 103 100 105 114 112 103 102 100 96 100 101 101 98 91 77 73 80 90